Regional Weather Roundup
Issued by NWS Green Bay, WI

Home | Current Version | Previous Version | Graphics & Text | Print | Product List | Glossary Off
Versions: 1 2 3 4 5 6 7 8 9 10 11 12 13 14 15 16 17 18 19 20 21 22 23 24 25 26 27 28 29 30 31 32 33 34 35 36 37 38 39 40 41 42 43 44 45 46 47 48 49 50

000
ASUS43 KGRB 231111
RWRGRB

NORTH-CENTRAL AND NORTHEAST WISCONSIN REGIONAL WEATHER ROUNDUP
NATIONAL WEATHER SERVICE GREEN BAY WI
600 AM CDT TUE MAY 23 2017

WIZ005-009-010>012-018-019-231200-
NORTH CENTRAL WISCONSIN

CITY           SKY/WX    TMP DP  RH WIND       PRES   REMARKS
IRONWOOD       CLOUDY    43  43 100 CALM      29.82S FOG
MANITOWISH WTR CLOUDY    39  39 100 CALM      29.81S
ARBOR VITAE    DRIZZLE   43  41  95 CALM      29.81R
EAGLE RIVER    CLOUDY    42  42 100 CALM      29.81S
LAND O LAKES   FOG       42  42 100 CALM      29.83S VSB 3/4
RHINELANDER    LGT RAIN  46  44  93 CALM      29.81R
PHILLIPS       CLOUDY    43  43 100 CALM      29.80S
ANTIGO         CLOUDY    46  44  95 E5        29.81R
TOMAHAWK       CLOUDY    43  42  97 CALM      29.81S
MERRILL        CLOUDY    45  45 100 N3        29.81R
$$

WIZ013-073-231200-
NORTHEAST WISCONSIN

CITY           SKY/WX    TMP DP  RH WIND       PRES   REMARKS
IRON MOUNTAIN  CLOUDY    40  37  89 NW3       29.81R
MARINETTE      MOCLDY    46  45  96 CALM      29.82R
OCONTO         CLOUDY    47  46  97 CALM      29.81R
$$

WIZ017-030-035>037-045-231200-
CENTRAL WISCONSIN

CITY           SKY/WX    TMP DP  RH WIND       PRES   REMARKS
MEDFORD        CLOUDY    46  44  92 CALM      29.79R
WAUSAU         CLOUDY    47  46  97 E3        29.78R
MOSINEE        CLOUDY    46  46 100 E7        29.80R
MARSHFIELD     CLOUDY    48  46  93 E6        29.78R
WISC RAPIDS    CLOUDY    50  46  86 E8        29.78R
STEVENS POINT  CLOUDY    47  46  93 E10       29.79R
WAUPACA        CLOUDY    52  47  85 CALM      29.78S
SHAWANO        CLOUDY    51  48  88 E5        29.80S
CLINTONVILLE   CLOUDY    50  46  87 NE5       29.79S
WAUTOMA        CLOUDY    51  49  92 NE3       29.78R
$$

WIZ038-039-048-051-231200-
FOX VALLEY

CITY           SKY/WX    TMP DP  RH WIND       PRES   REMARKS
NWS GREEN BAY  CLOUDY    54  45  71 E7        29.79R
APPLETON       MOCLDY    52  43  71 E6        29.77S
OSHKOSH        CLOUDY    54  52  93 CALM      29.77R
FOND DU LAC    CLOUDY    56  52  86 CALM      29.78R
$$

WIZ022-050-052-231200-
EAST CENTRAL WISCONSIN

CITY           SKY/WX    TMP DP  RH WIND       PRES   REMARKS
EPHRAIM        CLOUDY    47  46  96 SE3       29.81R
WASHINGTON ISL FAIR      38  38 100 CALM      29.82R FOG
STURGEON BAY   CLOUDY    47  44  90 SE6       29.82R
MANITOWOC      CLOUDY    48  44  86 E3        29.79S
SHEBOYGAN      MOCLDY    49  49 100 CALM      29.78R
$$

LMZ563-521-522-541>543-231200-
LAKESHORE

STATION/POSITION TIME  TEMP    WIND        PRES    VSBY  WAVE
                       AIR SEA DIR/SP/G                  HT/PER
                 (UTC) (F)     (DEG/KT/KT) (MB)    (MI)  (FT/S)
SHEBOYGAN LKSHOR 1100   47     180/  3/  4 1008.5R
KEWAUNEE LKSHORE 1048   46      50/  4/  5 1008.8S
ALGOMA MARINA    1000           80/  6/  7   N/A
NORTHPORT PIER   1040   45     300/  1/  2 1009.8R
N MID LAKE BUOY  1050   41 38   60/  2/  2 1011.1R         2/ 5
SISTER BAY LKSHO 1021   45        CALM       N/A
CHAMBERS ISLAND  1040   47      10/  4/  4 1009.1S
MENOMINEE LKSHOR 1048           20/  6/  7 1008.6S
$$




USA.gov is the U.S. government's official web portal to all federal, state and local government web resources and services.